LXP100 SCEL-SCSE

Flight info

Callsign LXP100
Flight time 0h 42m
Altitude 28000
Route DONTI UQ802 KUGAP KUGAP5
Aircraft A20N/M-SDE2E3FGHIRWXY/LB1

Departure

Time 2026-04-15 03:38
Airport Comodoro Arturo Merino Benítez International Airport (SCEL)

Arrival

Time 2026-04-15 04:20
Airport La Florida Airport (SCSE)
Time Latitude Longitude Altitude Speed Heading
2026-04-15 03:07 -33.39572 -70.79023 1564 ft 0 kts 189°
2026-04-15 03:26 -33.39567 -70.79022 1564 ft 2 kts 190°
2026-04-15 03:26 -33.39552 -70.79018 1564 ft 2 kts 189°
2026-04-15 03:26 -33.39538 -70.79016 1564 ft 2 kts 189°
2026-04-15 03:26 -33.39527 -70.79014 1564 ft 0 kts 189°
2026-04-15 03:27 -33.39514 -70.79013 1564 ft 2 kts 156°
2026-04-15 03:27 -33.39502 -70.79024 1564 ft 2 kts 121°
2026-04-15 03:27 -33.39498 -70.79037 1564 ft 0 kts 91°
2026-04-15 03:27 -33.39499 -70.79046 1564 ft 1 kts 86°
2026-04-15 03:28 -33.39499 -70.79047 1564 ft 0 kts 87°
2026-04-15 03:31 -33.39498 -70.79025 1564 ft 4 kts 89°
2026-04-15 03:31 -33.39497 -70.78983 1564 ft 5 kts 87°
2026-04-15 03:31 -33.39494 -70.78929 1564 ft 7 kts 80°
2026-04-15 03:31 -33.39464 -70.78878 1564 ft 8 kts 33°
2026-04-15 03:32 -33.39408 -70.78844 1564 ft 9 kts 28°
2026-04-15 03:32 -33.39347 -70.78802 1564 ft 10 kts 27°
2026-04-15 03:32 -33.39271 -70.78789 1564 ft 11 kts 356°
2026-04-15 03:32 -33.39186 -70.78793 1564 ft 12 kts 359°
2026-04-15 03:33 -33.39111 -70.78796 1564 ft 13 kts 357°
2026-04-15 03:33 -33.39040 -70.78798 1564 ft 13 kts 357°
2026-04-15 03:33 -33.38943 -70.78803 1564 ft 13 kts 352°
2026-04-15 03:33 -33.38845 -70.78807 1564 ft 14 kts 358°
2026-04-15 03:34 -33.38743 -70.78811 1564 ft 14 kts 358°
2026-04-15 03:34 -33.38638 -70.78816 1564 ft 15 kts 358°
2026-04-15 03:34 -33.38531 -70.78820 1564 ft 15 kts 359°
2026-04-15 03:34 -33.38421 -70.78825 1564 ft 15 kts 358°
2026-04-15 03:35 -33.38309 -70.78829 1564 ft 16 kts 358°
2026-04-15 03:35 -33.38196 -70.78834 1564 ft 16 kts 358°
2026-04-15 03:35 -33.38082 -70.78839 1564 ft 16 kts 358°
2026-04-15 03:35 -33.37975 -70.78843 1564 ft 14 kts 359°
2026-04-15 03:36 -33.37872 -70.78847 1564 ft 15 kts 358°
2026-04-15 03:36 -33.37764 -70.78851 1564 ft 15 kts 358°
2026-04-15 03:36 -33.37657 -70.78855 1564 ft 14 kts
2026-04-15 03:36 -33.37610 -70.78783 1563 ft 11 kts 89°
2026-04-15 03:37 -33.37615 -70.78686 1563 ft 7 kts 117°
2026-04-15 03:37 -33.37670 -70.78667 1563 ft 10 kts 179°
2026-04-15 03:37 -33.37999 -70.78650 1564 ft 87 kts 178°
2026-04-15 03:37 -33.38849 -70.78603 1565 ft 153 kts 178°
2026-04-15 03:38 -33.39787 -70.78552 1863 ft 171 kts 179°
2026-04-15 03:38 -33.41003 -70.78503 2550 ft 178 kts 179°
2026-04-15 03:38 -33.42218 -70.78498 3362 ft 179 kts 179°
2026-04-15 03:38 -33.43500 -70.78460 3904 ft 193 kts 178°
2026-04-15 03:39 -33.44867 -70.78762 4318 ft 217 kts 212°
2026-04-15 03:39 -33.45849 -70.80189 4829 ft 236 kts 253°
2026-04-15 03:39 -33.46059 -70.82193 5441 ft 253 kts 270°
2026-04-15 03:39 -33.46067 -70.84338 6049 ft 271 kts 269°
2026-04-15 03:40 -33.46141 -70.86639 6863 ft 280 kts 266°
2026-04-15 03:40 -33.46299 -70.88959 7767 ft 285 kts 265°
2026-04-15 03:40 -33.46505 -70.91319 8434 ft 288 kts 264°
2026-04-15 03:40 -33.46739 -70.93724 8836 ft 291 kts 264°
2026-04-15 03:41 -33.46771 -70.96163 9386 ft 300 kts 283°
2026-04-15 03:41 -33.45918 -70.98350 10358 ft 297 kts 310°
2026-04-15 03:41 -33.44263 -70.99934 11005 ft 306 kts 337°
2026-04-15 03:41 -33.42140 -71.00493 11515 ft 322 kts 356°
2026-04-15 03:42 -33.39843 -71.00723 12126 ft 335 kts 355°
2026-04-15 03:42 -33.37506 -71.00995 12927 ft 339 kts 354°
2026-04-15 03:42 -33.35174 -71.01280 13741 ft 341 kts 354°
2026-04-15 03:42 -33.32818 -71.01573 14550 ft 344 kts 354°
2026-04-15 03:43 -33.30439 -71.01872 15322 ft 348 kts 354°
2026-04-15 03:43 -33.28004 -71.02181 16055 ft 352 kts 353°
2026-04-15 03:43 -33.25582 -71.02490 16772 ft 355 kts 353°
2026-04-15 03:43 -33.23123 -71.02806 17466 ft 359 kts 353°
2026-04-15 03:44 -33.20620 -71.03127 18153 ft 363 kts 353°
2026-04-15 03:44 -33.18079 -71.03452 18827 ft 366 kts 353°
2026-04-15 03:44 -33.15567 -71.03773 19469 ft 369 kts 353°
2026-04-15 03:44 -33.12994 -71.04103 20117 ft 373 kts 352°
2026-04-15 03:45 -33.10393 -71.04436 20756 ft 376 kts 352°
2026-04-15 03:45 -33.07756 -71.04772 21400 ft 379 kts 352°
2026-04-15 03:45 -33.05106 -71.05111 22031 ft 382 kts 352°
2026-04-15 03:45 -33.02468 -71.05447 22637 ft 385 kts 352°
2026-04-15 03:46 -32.99762 -71.05792 23252 ft 388 kts 351°
2026-04-15 03:46 -32.97071 -71.06134 23848 ft 392 kts 351°
2026-04-15 03:46 -32.94322 -71.06484 24446 ft 394 kts 351°
2026-04-15 03:46 -32.91620 -71.06827 25143 ft 393 kts 350°
2026-04-15 03:47 -32.88895 -71.07172 25941 ft 390 kts 350°
2026-04-15 03:47 -32.86188 -71.07515 26691 ft 387 kts 349°
2026-04-15 03:47 -32.83533 -71.07852 27297 ft 388 kts 349°
2026-04-15 03:47 -32.80815 -71.08199 27802 ft 391 kts 349°
2026-04-15 03:48 -32.78097 -71.08548 28072 ft 394 kts 349°
2026-04-15 03:48 -32.75370 -71.08896 28096 ft 395 kts 349°
2026-04-15 03:48 -32.69913 -71.09590 28086 ft 395 kts 349°
2026-04-15 03:49 -32.64448 -71.10284 28086 ft 395 kts 349°
2026-04-15 03:49 -32.58957 -71.10980 28070 ft 395 kts 349°
2026-04-15 03:50 -32.53475 -71.11671 28067 ft 395 kts 349°
2026-04-15 03:50 -32.48067 -71.12355 28064 ft 395 kts 349°
2026-04-15 03:51 -32.42590 -71.13047 28066 ft 395 kts 349°
2026-04-15 03:51 -32.37096 -71.13738 28064 ft 395 kts 349°
2026-04-15 03:52 -32.31630 -71.14426 28069 ft 395 kts 349°
2026-04-15 03:52 -32.26144 -71.15115 28070 ft 396 kts 349°
2026-04-15 03:53 -32.20659 -71.15803 28073 ft 396 kts 349°
2026-04-15 03:53 -32.15167 -71.16492 28095 ft 396 kts 349°
2026-04-15 03:54 -32.09630 -71.17188 28110 ft 408 kts 349°
2026-04-15 03:55 -32.00958 -71.18274 28145 ft 420 kts 349°
2026-04-15 03:55 -31.95149 -71.18997 28158 ft 421 kts 349°
2026-04-15 03:56 -31.89295 -71.19729 28147 ft 422 kts 349°
2026-04-15 03:56 -31.83474 -71.20458 28127 ft 422 kts 349°
2026-04-15 03:57 -31.77556 -71.20950 28105 ft 425 kts 354°
2026-04-15 03:57 -31.71628 -71.20731 28091 ft 428 kts 358°
2026-04-15 03:58 -31.65668 -71.20367 28095 ft 428 kts 358°
2026-04-15 03:58 -31.59708 -71.20003 28093 ft 429 kts 358°
2026-04-15 03:59 -31.53754 -71.19640 28102 ft 429 kts 358°
2026-04-15 03:59 -31.47797 -71.19280 28104 ft 429 kts 358°
2026-04-15 03:59 -31.44804 -71.19099 27958 ft 425 kts 358°
2026-04-15 04:00 -31.41881 -71.18919 27696 ft 414 kts 358°
2026-04-15 04:00 -31.39049 -71.18747 27366 ft 405 kts 358°
2026-04-15 04:00 -31.36236 -71.18577 26935 ft 399 kts 358°
2026-04-15 04:00 -31.33505 -71.18415 26406 ft 398 kts 358°
2026-04-15 04:01 -31.30738 -71.18253 25815 ft 398 kts 358°
2026-04-15 04:01 -31.27973 -71.18088 25194 ft 398 kts 359°
2026-04-15 04:01 -31.25177 -71.17922 24549 ft 399 kts 359°
2026-04-15 04:01 -31.22383 -71.17755 23882 ft 401 kts 359°
2026-04-15 04:02 -31.19617 -71.17590 23257 ft 401 kts 359°
2026-04-15 04:02 -31.16846 -71.17423 22766 ft 398 kts 359°
2026-04-15 04:02 -31.14070 -71.17256 22287 ft 394 kts 360°
2026-04-15 04:02 -31.11355 -71.17093 21813 ft 392 kts 360°
2026-04-15 04:03 -31.08647 -71.16932 21328 ft 389 kts
2026-04-15 04:03 -31.05967 -71.16773 20850 ft 386 kts
2026-04-15 04:03 -31.03274 -71.16612 20363 ft 383 kts
2026-04-15 04:03 -31.00617 -71.16454 19880 ft 381 kts
2026-04-15 04:04 -30.97989 -71.16296 19392 ft 378 kts
2026-04-15 04:04 -30.95357 -71.16138 18951 ft 374 kts
2026-04-15 04:04 -30.92798 -71.15981 18866 ft 367 kts
2026-04-15 04:04 -30.90221 -71.15825 18359 ft 367 kts
2026-04-15 04:05 -30.87684 -71.15674 17841 ft 366 kts
2026-04-15 04:05 -30.85110 -71.15520 17365 ft 364 kts
2026-04-15 04:05 -30.82618 -71.15372 16914 ft 362 kts
2026-04-15 04:05 -30.80105 -71.15220 16449 ft 360 kts
2026-04-15 04:06 -30.77597 -71.15070 15941 ft 358 kts
2026-04-15 04:06 -30.75117 -71.14922 15502 ft 356 kts
2026-04-15 04:06 -30.72644 -71.14774 15009 ft 355 kts
2026-04-15 04:06 -30.70180 -71.14626 14565 ft 353 kts
2026-04-15 04:07 -30.67729 -71.14480 14091 ft 351 kts
2026-04-15 04:07 -30.65275 -71.14333 13626 ft 349 kts
2026-04-15 04:07 -30.62847 -71.14188 13150 ft 347 kts
2026-04-15 04:07 -30.60459 -71.14044 12714 ft 345 kts
2026-04-15 04:08 -30.58087 -71.13901 12258 ft 342 kts
2026-04-15 04:08 -30.55712 -71.13758 11823 ft 340 kts
2026-04-15 04:08 -30.53340 -71.13617 11387 ft 337 kts
2026-04-15 04:08 -30.51022 -71.13480 10956 ft 334 kts
2026-04-15 04:09 -30.48694 -71.13344 10525 ft 331 kts
2026-04-15 04:09 -30.46421 -71.13210 10211 ft 323 kts
2026-04-15 04:09 -30.44198 -71.13077 10112 ft 309 kts
2026-04-15 04:09 -30.42088 -71.12957 9929 ft 300 kts
2026-04-15 04:10 -30.40015 -71.12836 9502 ft 301 kts
2026-04-15 04:10 -30.37907 -71.12713 9108 ft 300 kts
2026-04-15 04:10 -30.35833 -71.12591 8750 ft 298 kts
2026-04-15 04:10 -30.33777 -71.12470 8396 ft 295 kts
2026-04-15 04:11 -30.31719 -71.12347 8046 ft 293 kts
2026-04-15 04:11 -30.29697 -71.12228 7709 ft 290 kts
2026-04-15 04:11 -30.27721 -71.12112 7520 ft 281 kts
2026-04-15 04:11 -30.25794 -71.11998 7508 ft 266 kts
2026-04-15 04:12 -30.23976 -71.11887 7432 ft 255 kts
2026-04-15 04:12 -30.22218 -71.11746 7140 ft 252 kts
2026-04-15 04:12 -30.20486 -71.11591 6854 ft 250 kts
2026-04-15 04:12 -30.18741 -71.11436 6572 ft 248 kts
2026-04-15 04:13 -30.17028 -71.11286 6303 ft 244 kts
2026-04-15 04:13 -30.15340 -71.11142 6054 ft 240 kts
2026-04-15 04:13 -30.13697 -71.11003 5826 ft 235 kts
2026-04-15 04:13 -30.12090 -71.10756 5578 ft 230 kts 19°
2026-04-15 04:14 -30.10654 -71.09982 5355 ft 223 kts 32°
2026-04-15 04:14 -30.09340 -71.09058 5147 ft 218 kts 34°
2026-04-15 04:14 -30.08065 -71.08139 4928 ft 214 kts 33°
2026-04-15 04:14 -30.06808 -71.07243 4662 ft 213 kts 33°
2026-04-15 04:15 -30.05558 -71.06359 4401 ft 211 kts 33°
2026-04-15 04:15 -30.04309 -71.05485 4188 ft 207 kts 31°
2026-04-15 04:15 -30.02983 -71.04808 3901 ft 208 kts 16°
2026-04-15 04:15 -30.01595 -71.04584 3688 ft 194 kts
2026-04-15 04:16 -30.00295 -71.04752 3377 ft 180 kts 348°
2026-04-15 04:16 -29.99155 -71.05227 3184 ft 166 kts 334°
2026-04-15 04:16 -29.98219 -71.05901 3004 ft 156 kts 323°
2026-04-15 04:16 -29.97443 -71.06754 2783 ft 153 kts 311°
2026-04-15 04:17 -29.96854 -71.07718 2575 ft 142 kts 301°
2026-04-15 04:17 -29.96407 -71.08730 2394 ft 140 kts 297°
2026-04-15 04:17 -29.95985 -71.09733 2216 ft 140 kts 297°
2026-04-15 04:17 -29.95559 -71.10744 2035 ft 139 kts 297°
2026-04-15 04:18 -29.95136 -71.11739 1848 ft 138 kts 297°
2026-04-15 04:18 -29.94704 -71.12752 1663 ft 139 kts 297°
2026-04-15 04:18 -29.94274 -71.13750 1476 ft 139 kts 298°
2026-04-15 04:18 -29.93827 -71.14741 1309 ft 139 kts 299°
2026-04-15 04:19 -29.93406 -71.15744 1147 ft 140 kts 297°
2026-04-15 04:19 -29.92977 -71.16744 969 ft 140 kts 298°
2026-04-15 04:19 -29.92552 -71.17749 775 ft 139 kts 297°
2026-04-15 04:19 -29.92125 -71.18760 590 ft 139 kts 297°
2026-04-15 04:20 -29.91720 -71.19717 489 ft 107 kts 297°
2026-04-15 04:20 -29.91528 -71.20174 489 ft 25 kts 294°
2026-04-15 04:20 -29.91531 -71.20261 488 ft 8 kts 203°
2026-04-15 04:20 -29.91581 -71.20288 489 ft 8 kts 222°
2026-04-15 04:21 -29.91583 -71.20339 488 ft 5 kts 284°
2026-04-15 04:21 -29.91588 -71.20373 488 ft 3 kts 221°
2026-04-15 04:21 -29.91603 -71.20383 489 ft 1 kts 205°
2026-04-15 04:21 -29.91612 -71.20387 489 ft 0 kts 206°